This is the latest recevied weather packets stored in our database for station/object EB1GOD-1. If no packets are shown the sender has not sent any weather packets the latest 10 day(s).
| Time | Temp. | Humidity | Pressure | Rain* | Wind** | Luminosity | Snow |
|---|---|---|---|---|---|---|---|
| 1777703517 | 14.44° C | 83% | 1154.1 hPa | - | - | - | - |
| 1777702617 | 14.44° C | 83% | 1153.9 hPa | - | - | - | - |
| 1777701717 | 13.89° C | 84% | 1153.8 hPa | - | - | - | - |
| 1777700817 | 14.44° C | 84% | 1153.7 hPa | - | - | - | - |
| 1777699917 | 14.44° C | 84% | 1153.6 hPa | - | - | - | - |
| 1777699093 | 14.44° C | 84% | 1153.7 hPa | - | - | - | - |
| 1777699017 | 14.44° C | 84% | 1153.7 hPa | - | - | - | - |
| 1777698116 | 14.44° C | 85% | 1153.8 hPa | - | - | - | - |
| 1777697217 | 14.44° C | 84% | 1153.8 hPa | - | - | - | - |
| 1777696316 | 15° C | 82% | 1153.8 hPa | - | - | - | - |
| 1777695416 | 15° C | 85% | 1154 hPa | - | - | - | - |
| 1777694516 | 15.56° C | 84% | 1154 hPa | - | - | - | - |
| 1777693616 | 15° C | 84% | 1154.1 hPa | - | - | - | - |
| 1777692716 | 15° C | 82% | 1154.4 hPa | - | - | - | - |
| 1777691816 | 16.11° C | 80% | 1154.2 hPa | - | - | - | - |
| 1777690916 | 15.56° C | 80% | 1154.4 hPa | - | - | - | - |
| 1777690002 | 15.56° C | 82% | 1154.4 hPa | - | - | - | - |
| 1777689099 | 15.56° C | 81% | 1154.5 hPa | - | - | - | - |
| 1777688199 | 15.56° C | 83% | 1154.6 hPa | - | - | - | - |
| 1777687298 | 15.56° C | 81% | 1154.6 hPa | - | - | - | - |
| 1777686398 | 16.11° C | 79% | 1154.8 hPa | - | - | - | - |
| 1777685498 | 16.67° C | 78% | 1154.9 hPa | - | - | - | - |
| 1777684598 | 16.67° C | 79% | 1155.2 hPa | - | - | - | - |
| 1777683698 | 16.67° C | 79% | 1155.3 hPa | - | - | - | - |
| 1777682798 | 16.67° C | 79% | 1155.4 hPa | - | - | - | - |
* Rain since midnight (hover to see other rain measurements)
** Current wind speed in m/s (hover to see current wind gust speed)